Regional Weather Roundup
Issued by NWS San Diego, CA

Home | Current Version | Previous Version | Text Only | Print | Product List | Glossary On
Versions: 1 2 3 4 5 6 7 8 9 10 11 12 13 14 15 16 17 18 19 20 21 22 23 24 25 26 27 28 29 30 31 32 33 34 35 36 37 38 39 40 41 42 43 44 45 46 47 48 49 50
000
ASUS46 KSGX 012210
RWRSGX

SAN DIEGO HOURLY WEATHER ROUNDUP
NATIONAL WEATHER SERVICE SAN DIEGO CA
300 PM PDT WED OCT 01 2014

NOTE: "FAIR" INDICATES FEW OR NO CLOUDS BELOW 12,000 FEET WITH NO
SIGNIFICANT WEATHER AND/OR OBSTRUCTIONS TO VISIBILITY.

CAZ042-043-060-061-PZZ750-775-012300-

GREATER SAN DIEGO AREA

CITY           SKY/WX    TMP DP  RH WIND       PRES   REMARKS
LINDBERGH FLD  MOSUNNY   75  62  64 W8        29.79F
POINT LOMA       N/A     75  62  63 W9          N/A
NATIONAL CITY    N/A     74  65  74 W5        29.79S
CHULA VISTA      N/A     73  65  75 W5        29.72S
IMPERIAL BEACH MOSUNNY   73  63  70 SW10      29.79F
BROWN FIELD    SUNNY     75  61  61 W8        29.78F
MIRAMAR MCAS   MOSUNNY   78  61  55 W9        29.78S
MONTGOMERY FLD MOSUNNY   75  62  64 W8        29.79S

$$

NORTH SAN DIEGO COUNTY

CITY           SKY/WX    TMP DP  RH WIND       PRES   REMARKS
CAMP PENDLETON SUNNY     76  60  57 SW10G18   29.76S
OCEANSIDE AP   SUNNY     76  62  62 SW8       29.77S
OCEANSIDE HBR    N/A     71  66  83 SW9       29.80S
VISTA            N/A     76  64  65 W5        29.75F
CARLSBAD       SUNNY     73  61  65 W10       29.78S
DEL MAR          N/A     75  66  73 CALM      29.80F
LA JOLLA SCRIP   N/A     71  66  84 CALM      29.76S
FALLBROOK        N/A     80  62  54 SW7       29.77S
ESCONDIDO        N/A     82  63  52 W7        29.78S
SAN MARCOS       N/A     74  64  70 SW3       29.75F
POWAY            N/A     82  62  50 W6        29.77S

$$

EAST SAN DIEGO COUNTY

CITY           SKY/WX    TMP DP  RH WIND       PRES   REMARKS
RAMONA         SUNNY     81  56  42 W12       29.79S
LA MESA          N/A     77  65  66 SW8       29.71F
JAMUL            N/A     81  62  51 CALM      29.76S
MT. LAGUNA OBS   N/A     64  32  30 NE16      29.61R
CAMPO            N/A     84  35  17 E15G21    29.80R

$$

ORANGE COUNTY AND THE LOS ANGELES BASIN

CITY           SKY/WX    TMP DP  RH WIND       PRES   REMARKS
JOHN WAYNE AP  SUNNY     79  61  53 W7        29.77S
LAGUNA BEACH     N/A     75  66  72 SW1       29.74S
LAKE FOREST FR   N/A     85  59  40 W3        29.66F
SANTA ANA        N/A     84  66  54 CALM      29.72S
HUNTINGTON BCH   N/A     76  66  72 SW2       29.80F
LOS ALAMITOS   SUNNY     78  63  59 S9        29.77F
FULLERTON      SUNNY     83  60  45 S9        29.75F
LONG BEACH     SUNNY     78  61  55 S8        29.77F
L.A. AP        MOSUNNY   72  62  71 W13       29.78F
L.A. DOWNTOWN  SUNNY     78  62  57 VRB7      29.77S

$$

THE INLAND EMPIRE

CITY           SKY/WX    TMP DP  RH WIND       PRES   REMARKS
CORONA         SUNNY     86  57  36 W13       29.76F
CHINO          SUNNY     89  54  30 W10       29.77S
ONTARIO        SUNNY     88  52  29 W13       29.76F
RIVERSIDE AP   SUNNY     87  52  29 SW8       29.76S
RIV CYN CREST    N/A     87  61  41 W6        29.73F
MORENO VALLEY    N/A     91  49  23 S3        28.95F
MARCH ARB      SUNNY     89  46  22 NW8       29.78F
HORSETHIEF CYN   N/A     86  40  20 SW6       29.77F
PERRIS           N/A     88  46  23 W7        29.75F
MENIFEE          N/A     92  46  20 N3        29.82F
HEMET EAST       N/A     87  41  19 CALM      29.75F
FRENCH VALLEY  FAIR      90  41  18 CALM      29.78S
TEMECULA         N/A     89  58  35 SW8       29.70F

$$

SAN BERNARDINO AND RIVERSIDE COUNTY MOUNTAINS

CITY           SKY/WX    TMP DP  RH WIND       PRES   REMARKS
BIG BEAR AP    SUNNY     61  28  29 E7        30.12R
ANGELUS OAKS     N/A     72  42  34 CALM      29.73S
PINE COVE        N/A     71  38  30 CALM      29.73R

$$

SOUTHERN DESERT INCLUDING THE COACHELLA VALLEY

CITY           SKY/WX    TMP DP  RH WIND       PRES   REMARKS
PALM SPRINGS   SUNNY     97  33  10 CALM      29.75S
THOUSAND PALMS   N/A     96  39  13 SE5       29.70S
PALM DESERT      N/A    100  42  13 N7        31.34R HX  95
THERMAL        SUNNY     98  38  12 CALM      29.68F
BLYTHE         SUNNY     92  45  19 VRB3      29.73F
IMPERIAL AP    SUNNY     93  40  15 VRB3      29.70F
EL CENTRO NAS  MOSUNNY   95  39  14 MISG      29.70F
YUMA AZ        MOSUNNY   93  49  22 SW3       29.71F
MEXICALI       SUNNY     95  32  11 SW3       29.72

$$

UPPER DESERT

CITY           SKY/WX    TMP DP  RH WIND       PRES   REMARKS
VICTORVILLE AP SUNNY     84  30  14 E12G18    29.91S
HESPERIA         N/A     82  37  20 E3        29.91F
APPLE VALLEY     N/A     82  33  17 NE3G17    29.95F
PALMDALE       SUNNY     86  33  15 E14G21    29.89S
LANCASTER      SUNNY     86  34  15 NE16G23   29.88F
EDWARDS AFB    SUNNY     87  31  13 E8        29.87R
DAGGETT        SUNNY     89  32  13 NE12      29.87S
29 PALMS N     SUNNY     87  36  16 NW9       29.92S
NEEDLES        SUNNY     94  36  13 N21G28    29.78S

$$

REGIONAL REPORTS

CITY           SKY/WX    TMP DP  RH WIND       PRES   REMARKS
SANTA BARBARA  SUNNY     74  62  66 SW8       29.79F
SANDBERG       SUNNY     80  32  17 NE12G29   29.99F
MT. WILSON       N/A     79  48  34 MISG        N/A
LAS VEGAS NV   MOSUNNY   83  27  13 NE10G18   29.87S
PHOENIX AZ     MOSUNNY   88  36  15 VRB3      29.76S
TIJUANA        SUNNY     75  55  50 NW6       29.80F
ENSENADA NW      N/A     71  32  23 W14       29.76S

$$

OFFSHORE ISLANDS

CITY           SKY/WX    TMP DP  RH WIND       PRES   REMARKS
CATALINA ARPT  SUNNY     71  59  65 W8        29.83S
SAN NICOLAS IS SUNNY    N/A N/A N/A S8        29.80S

$$

MARINE AND OFFSHORE BUOY REPORTS

STATION/POSITION SKY/WX   TEMP    WIND        PRES    SWELL
                          AIR SEA DIR/SP/G            HT/PER/DIR
                          (F)     (DEG/KT/KT) (MB)    (FT/S/D)
TANNER BANKS               67 69  260/  6/  8 1008.5F   8/310/ 9
S CLEMENTE BASIN           68 72  250/  8/ 10 1008.5F   5/280/11
SO. S. ROSA ISLA           65 65  340/  4/  6 1008.6F   7/11
W. S. BARBARA CH           65 62  260/  4/  6 1008.2F   8/300/11
M. S. BARBARA CH           67 67  160/  2/  2 1009.4F
S. MONICA BASIN            66 71  250/  6/  8 1008.4F   3/220/15
LA JOLLA 1                 71 71  280/  5/  8 1008.7R
SAN DIEGO BAY                 73              1009.1R

$$



USA.gov is the U.S. government's official web portal to all federal, state and local government web resources and services.